STARLINK-4742, 53795

Orbit data source: Space-Track

STARLINK-4742, 53795 is a payload satellite owned by SpaceX/Seattle (US) in LEO that was launched on Sun, 11 Sep 2022 UTC via an FALCON 9 launch vehicle from the Air Force Eastern Test Range (AFETR). Payload-class satellites include a variety of spacecraft equipped with specific instruments for various scientific and technological missions. These include communications satellites like Starlink; space stations such as the ISS; scientific satellites like the Hubble; Earth observation satellites from companies like Planet Labs, Umbra, and HawkEye 360; GPS; miniature CubeSats for education and research; and military/defense satellites.

Loading next visibility...
Identifier
53795, 2022-111Y
Orbit
LEO
Country
Flag of USUS
Related business
Manufacturer
SpaceX/Seattle
Mission
Operational Commercial Communications
Bus & Motor
STARLINK, Unknown motor
Mass
305 kg wet, ~290 kg dry
Launch date (UTC)
2022-09-11 (4 years ago)
Launch vehicle
FALCON 9
Launch site
Air Force Eastern Test Range (AFETR)
Object type
Payload
Rocket body
Debris
Shape & HBR
Box + 1 Pan, 10.1 m
Radar Cross Section
13.562 m², Large (>1 m²)

Expand to show TLE details & history
Last TLE update: 9 hours ago

TLE from 9 hours ago
0 STARLINK-4742
1 53795U 22111Y   26249.51421021  .00000136  00000-0  16140-4 0  9991
2 53795  53.1606 172.0404 0001403  84.0676 276.0485 15.31702229221121
Epoch: 2026-09-06T12:20Z
TLE epoch observation values (Epoch: 2026-09-06T12:20:27.762Z)
Latitude
-0.00003°
Longitude
1.31647°
Altitude
471.533 km
Speed
7.632 km/s
True Right ascension
11h 28m 09s
True Declination
0° 00' 00"
Sunlit
Object was in daylight at epoch
Visualization orbit readout
Latitude
Unknown
Longitude
Unknown
Altitude
Unknown
Speed
Unknown
Apparent Right ascension
Unknown
Apparent Declination
Unknown
Sunlit
N/A
Visualization observer readout
Local Sidereal Time
13:43:34
Azimuth
Unknown
Elevation
Unknown
Doppler factor
Unknown
Orbital elements
Apogee altitude
471.951 km
Perigee altitude
470.029 km
Semi-major axis
6,849.127 km
Eccentricity
0.00014
Inclination
53.1606°
RAAN
172.0404°
Arg. of periapsis
84.0676°
True anomaly
276.03251°
Mean anomaly
276.0485°
Eccentric anomaly
276.04051°
Mean motion
3.82904 °/min
Orbital period
94.02 mins
BSTAR
0.00001614
Loading maneuver chart data...
Computing Atmospheric mass density...
Loading historical data...
Loading historical data...
Loading historical data...
Loading historical data...
Loading historical data...
Loading historical data...
Loading historical data...

Documentation

Showing up to 5 results
|